TJS-4

Last updated on Sun Apr 12 2026 00:02:55 GMT+0000 (Coordinated Universal Time)

1 44637U 19070A 26101.39461650 -.00000169 00000+0 00000+0 0 9990 2 44637 0.0532 54.7380 0002646 5.0275 5.4705 1.00272904 23865
UTC large
Height (km)
Speed (km/s)
/
Latitude / Longitude
Inclination (degrees)
Orbital Period (minutes)
Azimuth
Elevation
Range (km)
Doppler Factor

Next 0 passes for location: London (51.5072 / 0.1276)

Sorry there are no passes over London.
TJS-4